Plattsburgh, NY

5:59 AM EST on December 16, 2019 (GMT -0500)
Plattsburgh International

Weather History for KPBG - October, 2019

Change the Weather History Date:

Wednesday, October 2, 2019

  Actual Average Record
Temperature  
Mean Temperature 56 °F 52 °F  
Max Temperature 69 °F 63 °F 83 °F (1971)
Min Temperature 42 °F 42 °F 31 °F (1949)
Degree Days  
Heating Degree Days 10 13  
Month to date heating degree days 10 25  
Since 1 July heating degree days 202 260  
Cooling Degree Days 0 0  
Month to date cooling degree days 0 0  
Year to date cooling degree days 406 345  
Growing Degree Days 6 (Base 50)    
Moisture  
Dew Point 50 °F    
Average Humidity 78    
Maximum Humidity 94    
Minimum Humidity 61    
Precipitation  
Precipitation 0.06 in - 1.05 in (2018)
Month to date precipitation 0.75 0.00  
Year to date precipitation 22.37  
Sea Level Pressure  
Sea Level Pressure 29.91 in    
Wind  
Wind Speed 7 mph ()    
Max Wind Speed 22 mph    
Max Gust Speed 28 mph    
Visibility 9.8 miles    
Events Rain    
T = Trace of Precipitation, MM = Missing Value Source: Averaged Metar Reports

Daily Weather History Graph

Daily Weather History Graph

Search for Another Location

Airport or City:

Astronomy

Oct. 02, 2019 Rise Set
Actual Time 6:52 AM EDT 6:33 PM EDT
Civil Twilight 6:23 AM EDT 7:02 PM EDT
Nautical Twilight 5:49 AM EDT 7:35 PM EDT
Astronomical Twilight 5:15 AM EDT 8:10 PM EDT
Moon 11:24 AM EDT (10/2) 9:14 PM EDT (10/2)
Length of Visible Light 12h 38m
Length of Day
11h 40m
Waxing Crescent, 20% of the Moon is Illuminated
Oct 2
Waxing Crescent
Oct 5
First Quarter
Oct 13
Full
Oct 21
Last Quarter
Oct 27
New

Hourly Weather History & Observations

Time (EDT) Temp. Windchill Dew Point Humidity Pressure Visibility Wind Dir Wind Speed Gust Speed Precip Events Conditions
12:04 AM 66.9 °F - 64.9 °F 93% 29.72 in 10.0 mi NNE 3.5 mph - 0.00 in Rain Light Rain
12:42 AM 66.9 °F - 64.9 °F 93% 29.72 in 8.0 mi Calm Calm - 0.00 in   Overcast
12:49 AM 66.2 °F - 64.4 °F 94% 29.72 in 7.0 mi NW 3.5 mph - 0.00 in   Overcast
12:53 AM 66.9 °F - 64.9 °F 93% 29.73 in 8.0 mi NNW 4.6 mph - 0.00 in   Overcast
1:44 AM 68.0 °F - 64.9 °F 90% 29.73 in 10.0 mi NNE 5.8 mph - N/A   Overcast
1:53 AM 69.1 °F - 64.0 °F 84% 29.74 in 10.0 mi North 4.6 mph - N/A   Overcast
2:53 AM 66.9 °F - 63.0 °F 87% 29.74 in 10.0 mi NNW 5.8 mph - N/A   Mostly Cloudy
3:53 AM 66.9 °F - 60.1 °F 79% 29.78 in 10.0 mi NNW 9.2 mph - N/A   Overcast
4:53 AM 66.0 °F - 57.9 °F 75% 29.80 in 10.0 mi NNW 6.9 mph - N/A   Overcast
5:53 AM 64.0 °F - 57.9 °F 80% 29.80 in 10.0 mi NNW 11.5 mph - N/A   Overcast
6:15 AM 64.0 °F - 57.9 °F 80% 29.82 in 10.0 mi North 12.7 mph - N/A   Overcast
6:53 AM 62.1 °F - 55.0 °F 78% 29.83 in 10.0 mi North 11.5 mph - 0.00 in Rain Light Rain
7:53 AM 59.0 °F - 54.0 °F 83% 29.85 in 10.0 mi NNW 10.4 mph - 0.01 in Rain Light Rain
8:33 AM 57.9 °F - 54.0 °F 87% 29.87 in 10.0 mi NNW 9.2 mph - 0.01 in Rain Light Rain
8:53 AM 57.9 °F - 53.1 °F 84% 29.87 in 10.0 mi North 13.8 mph - 0.02 in Rain Light Rain
9:53 AM 53.1 °F - 48.0 °F 83% 29.89 in 10.0 mi North 11.5 mph - 0.02 in Rain Light Rain
10:53 AM 53.1 °F - 46.9 °F 80% 29.91 in 10.0 mi North 15.0 mph - 0.01 in   Overcast
11:53 AM 51.1 °F - 46.9 °F 86% 29.93 in 10.0 mi North 18.4 mph - N/A   Overcast
12:53 PM 53.1 °F - 44.1 °F 71% 29.94 in 10.0 mi North 11.5 mph - N/A   Overcast
1:38 PM 53.1 °F - 44.1 °F 71% 29.95 in 10.0 mi North 15.0 mph - N/A   Overcast
1:53 PM 52.0 °F - 43.0 °F 71% 29.96 in 10.0 mi North 12.7 mph - N/A   Overcast
2:26 PM 53.1 °F - 43.0 °F 69% 29.97 in 10.0 mi North 12.7 mph - N/A   Overcast
2:44 PM 51.1 °F - 44.1 °F 77% 29.97 in 10.0 mi NNE 12.7 mph - N/A   Overcast
2:53 PM 51.1 °F - 44.1 °F 77% 29.99 in 10.0 mi North 15.0 mph - N/A   Overcast
3:53 PM 51.1 °F - 42.1 °F 71% 30.00 in 10.0 mi North 11.5 mph - N/A   Overcast
4:14 PM 52.0 °F - 43.0 °F 71% 30.00 in 10.0 mi NNW 10.4 mph - N/A   Overcast
4:53 PM 52.0 °F - 42.1 °F 69% 30.01 in 10.0 mi North 10.4 mph - N/A   Overcast
5:53 PM 52.0 °F - 41.0 °F 66% 30.04 in 10.0 mi NNE 10.4 mph - N/A   Overcast
6:53 PM 50.0 °F - 39.0 °F 66% 30.06 in 10.0 mi NNE 12.7 mph - N/A   Overcast
7:53 PM 50.0 °F - 37.0 °F 61% 30.10 in 10.0 mi North 11.5 mph - N/A   Overcast
8:53 PM 48.0 °F - 37.9 °F 68% 30.12 in 10.0 mi North 9.2 mph - N/A   Mostly Cloudy
9:53 PM 48.0 °F - 37.0 °F 66% 30.15 in 10.0 mi North 9.2 mph - N/A   Overcast
10:53 PM 45.0 °F 40.1 °F 37.9 °F 76% 30.18 in 10.0 mi NNW 9.2 mph - N/A   Clear
11:53 PM 44.1 °F 40.8 °F 37.0 °F 76% 30.19 in 10.0 mi NNW 5.8 mph - N/A   Mostly Cloudy